Milledgeville, GA

7:40 PM EST on December 05, 2019 (GMT -0500)
Baldwin County

Weather History for KMLJ - October, 2019

Change the Weather History Date:

Wednesday, October 16, 2019

  Actual Average (WUND) Record (WUND)
Temperature  
Mean Temperature 68 °F -  
Max Temperature 78 °F - - (-1)
Min Temperature 57 °F - - (-1)
Cooling Degree Days 4    
Growing Degree Days 18 (Base 50)    
Moisture  
Dew Point 62 °F    
Average Humidity 79    
Maximum Humidity 100    
Minimum Humidity 54    
Precipitation  
Precipitation 0.00 in - - ()
Sea Level Pressure  
Sea Level Pressure 29.84 in    
Wind  
Wind Speed 5 mph (WNW)    
Max Wind Speed 18 mph    
Max Gust Speed 25 mph    
Visibility 9 miles    
Events Rain    
Averages and records for this station are not official NWS values.
T = Trace of Precipitation, MM = Missing Value Source: NWS Daily Summary

Daily Weather History Graph

Daily Weather History Graph

Search for Another Location

Airport or City:

Astronomy

Oct. 16, 2019 Rise Set
Actual Time 7:37 AM EDT 6:58 PM EDT
Civil Twilight 7:12 AM EDT 7:23 PM EDT
Nautical Twilight 6:44 AM EDT 7:52 PM EDT
Astronomical Twilight 6:15 AM EDT 8:20 PM EDT
Moon 8:58 PM EDT (10/16) 10:01 AM EDT (10/16)
Length of Visible Light 12h 10m
Length of Day
11h 20m
Waning Gibbous, 93% of the Moon is Illuminated
Oct 16
Waning Gibbous
Oct 21
Last Quarter
Oct 27
New
Nov 4
First Quarter
Nov 12
Full

Hourly Weather History & Observations

Time (EDT) Temp. Dew Point Humidity Pressure Visibility Wind Dir Wind Speed Gust Speed Precip Events Conditions
12:15 AM 66.2 °F 64.4 °F 94% 29.93 in 7.0 mi South 3.5 mph - N/A   Overcast
12:35 AM 66.2 °F 64.4 °F 94% 29.93 in 7.0 mi South 3.5 mph - N/A Rain Light Rain
12:55 AM 66.2 °F 64.4 °F 94% 29.93 in 7.0 mi Calm Calm - N/A   Overcast
1:15 AM 66.2 °F 64.4 °F 94% 29.93 in 7.0 mi Calm Calm - N/A   Drizzle
1:35 AM 66.2 °F 64.4 °F 94% 29.93 in 7.0 mi Calm Calm - N/A   Drizzle
1:50 AM 64.4 °F 64.4 °F 100% 29.91 in 7.0 mi Calm Calm - N/A Rain Light Rain
2:15 AM 64.4 °F 64.4 °F 100% 29.91 in 5.0 mi Calm Calm - N/A Rain Rain
2:35 AM 66.2 °F 64.4 °F 94% 29.89 in 5.0 mi Calm Calm - N/A Rain Rain
2:55 AM 64.4 °F 64.4 °F 100% 29.89 in 5.0 mi Calm Calm - N/A Rain Light Rain
3:15 AM 64.4 °F 64.4 °F 100% 29.86 in 4.0 mi SSE 4.6 mph - N/A Rain Light Rain
3:35 AM 64.4 °F 64.4 °F 100% 29.84 in 5.0 mi Calm Calm - N/A Rain Light Rain
3:55 AM 64.4 °F 64.4 °F 100% 29.86 in 7.0 mi Calm Calm - N/A Rain Light Rain
4:15 AM 64.4 °F 64.4 °F 100% 29.84 in 10.0 mi Calm Calm - N/A   Drizzle
4:35 AM 66.2 °F 64.4 °F 94% 29.82 in 10.0 mi Calm Calm - N/A   Overcast
4:55 AM 66.2 °F 64.4 °F 94% 29.81 in 10.0 mi Calm Calm - N/A   Drizzle
5:15 AM 66.2 °F 64.4 °F 94% 29.80 in 10.0 mi SSE 3.5 mph - N/A   Overcast
5:35 AM 66.2 °F 64.4 °F 94% 29.80 in 7.0 mi Calm Calm - N/A   Overcast
5:55 AM 66.2 °F 64.4 °F 94% 29.81 in 7.0 mi Calm Calm - N/A   Overcast
6:15 AM 66.2 °F 66.2 °F 100% 29.80 in 5.0 mi Calm Calm - N/A   Light Drizzle
6:35 AM 66.2 °F 66.2 °F 100% 29.79 in 4.0 mi Calm Calm - N/A   Overcast
6:55 AM 66.2 °F 66.2 °F 100% 29.79 in 4.0 mi Calm Calm - N/A   Overcast
7:15 AM 68.0 °F 66.2 °F 94% 29.79 in 5.0 mi Calm Calm - N/A   Overcast
7:35 AM 68.0 °F 68.0 °F 100% 29.79 in 7.0 mi Calm Calm - N/A   Overcast
7:55 AM 68.0 °F 68.0 °F 100% 29.79 in 10.0 mi Calm Calm - N/A   Overcast
8:15 AM 68.0 °F 68.0 °F 100% 29.79 in 4.0 mi Calm Calm - N/A   Light Drizzle
8:35 AM 68.0 °F 68.0 °F 100% 29.79 in 10.0 mi West 5.8 mph - N/A   Overcast
8:55 AM 69.8 °F 68.0 °F 94% 29.79 in 10.0 mi West 3.5 mph - N/A   Overcast
9:15 AM 69.8 °F 68.0 °F 94% 29.79 in 10.0 mi WNW 9.2 mph - N/A   Overcast
9:35 AM 69.8 °F 68.0 °F 94% 29.80 in 10.0 mi West 6.9 mph - N/A   Overcast
9:55 AM 69.8 °F 68.0 °F 94% 29.80 in 10.0 mi WNW 8.1 mph - N/A   Overcast
10:15 AM 71.6 °F 68.0 °F 88% 29.79 in 10.0 mi WNW 6.9 mph - N/A   Overcast
10:35 AM 73.4 °F 69.8 °F 88% 29.79 in 10.0 mi West 10.4 mph 16.1 mph N/A   Mostly Cloudy
10:55 AM 71.6 °F 68.0 °F 88% 29.80 in 10.0 mi WNW 8.1 mph - N/A   Overcast
11:15 AM 73.4 °F 68.0 °F 83% 29.80 in 10.0 mi WNW 10.4 mph - N/A   Overcast
11:35 AM 75.2 °F 68.0 °F 78% 29.80 in 10.0 mi WNW 11.5 mph - N/A   Mostly Cloudy
11:55 AM 77.0 °F 68.0 °F 74% 29.81 in 10.0 mi NW 18.4 mph 25.3 mph N/A   Mostly Cloudy
12:15 PM 77.0 °F 64.4 °F 65% 29.81 in 10.0 mi NW 13.8 mph 20.7 mph N/A   Mostly Cloudy
12:35 PM 77.0 °F 64.4 °F 65% 29.82 in 10.0 mi NW 12.7 mph 20.7 mph N/A   Mostly Cloudy
1:15 PM 77.0 °F 62.6 °F 61% 29.82 in 10.0 mi NW 11.5 mph 18.4 mph N/A   Mostly Cloudy
1:35 PM 78.8 °F 62.6 °F 57% 29.81 in 10.0 mi WNW 15.0 mph 23.0 mph N/A   Scattered Clouds
1:55 PM 77.0 °F 62.6 °F 61% 29.81 in 10.0 mi NW 11.5 mph - N/A   Scattered Clouds
2:15 PM 78.8 °F 62.6 °F 57% 29.81 in 10.0 mi NW 18.4 mph 24.2 mph N/A   Mostly Cloudy
2:35 PM 77.0 °F 60.8 °F 57% 29.81 in 10.0 mi NW 17.3 mph 21.9 mph N/A   Mostly Cloudy
2:55 PM 77.0 °F 60.8 °F 57% 29.81 in 10.0 mi NW 17.3 mph 24.2 mph N/A   Scattered Clouds
3:15 PM 77.0 °F 60.8 °F 57% 29.81 in 10.0 mi WNW 16.1 mph 23.0 mph N/A   Scattered Clouds
3:35 PM 78.8 °F 60.8 °F 54% 29.81 in 10.0 mi NW 15.0 mph 19.6 mph N/A   Scattered Clouds
3:55 PM 77.0 °F 60.8 °F 57% 29.81 in 10.0 mi NW 12.7 mph 18.4 mph N/A   Clear
4:15 PM 77.0 °F 60.8 °F 57% 29.81 in 10.0 mi NW 10.4 mph - N/A   Clear
4:35 PM 77.0 °F 60.8 °F 57% 29.81 in 10.0 mi NW 9.2 mph - N/A   Clear
4:55 PM 75.2 °F 60.8 °F 61% 29.81 in 10.0 mi NW 10.4 mph 17.3 mph N/A   Clear
5:15 PM 73.4 °F 59.0 °F 61% 29.81 in 10.0 mi NW 8.1 mph - N/A   Clear
5:35 PM 73.4 °F 59.0 °F 61% 29.82 in 10.0 mi NW 15.0 mph 21.9 mph N/A   Clear
5:55 PM 73.4 °F 57.2 °F 57% 29.81 in 10.0 mi NW 9.2 mph - N/A   Clear
6:15 PM 71.6 °F 55.4 °F 57% 29.83 in 10.0 mi NW 12.7 mph 19.6 mph N/A   Clear
6:35 PM 69.8 °F 53.6 °F 56% 29.84 in 10.0 mi NW 11.5 mph 23.0 mph N/A   Clear
6:55 PM 68.0 °F 53.6 °F 60% 29.85 in 10.0 mi NW 15.0 mph - N/A   Clear
7:15 PM 68.0 °F 53.6 °F 60% 29.85 in 10.0 mi NW 10.4 mph - N/A   Clear
7:35 PM 66.2 °F 53.6 °F 64% 29.86 in 10.0 mi NW 8.1 mph - N/A   Clear
7:55 PM 64.4 °F 53.6 °F 68% 29.86 in 10.0 mi NW 5.8 mph - N/A   Clear
8:15 PM 64.4 °F 53.6 °F 68% 29.87 in 10.0 mi NW 9.2 mph - N/A   Clear
8:35 PM 64.4 °F 53.6 °F 68% 29.88 in 10.0 mi NW 9.2 mph - N/A   Clear
8:55 PM 64.4 °F 53.6 °F 68% 29.89 in 10.0 mi NW 8.1 mph - N/A   Clear
9:15 PM 62.6 °F 51.8 °F 68% 29.90 in 10.0 mi NNW 6.9 mph - N/A   Clear
9:35 PM 62.6 °F 51.8 °F 68% 29.90 in 10.0 mi NW 5.8 mph - N/A   Clear
9:55 PM 60.8 °F 50.0 °F 68% 29.90 in 10.0 mi NW 4.6 mph - N/A   Clear
10:15 PM 60.8 °F 50.0 °F 68% 29.91 in 10.0 mi WNW 4.6 mph - N/A   Clear
10:35 PM 59.0 °F 50.0 °F 72% 29.92 in 10.0 mi WNW 3.5 mph - N/A   Clear
10:55 PM 59.0 °F 50.0 °F 72% 29.92 in 10.0 mi WNW 6.9 mph - N/A   Clear
11:15 PM 59.0 °F 50.0 °F 72% 29.92 in 10.0 mi WNW 5.8 mph - N/A   Clear
11:55 PM 57.2 °F 50.0 °F 77% 29.93 in 10.0 mi WNW 9.2 mph - N/A   Clear